Location: American Medical Response
(33.3472°N, 96.5511°W)
Time: 15:54:47
(UTC+00:00)

SJ 16-02 - Pass Details

Date: 11 July 2022
Orbit: 604 x 615 km, 75.0° (Epoch: 14 August)

Event Time Altitude Azimuth Distance (km) Brightness Sun altitude
Rises 05:09:23 0° 346° (NNW) 2,888 5.9 -31.2°
Reaches altitude 10° 05:11:39 10° 347° (NNW) 1,978 4.8 -31.4°
Enters shadow 05:13:58 31° 352° (N) 1,093 3.1 -31.5°
